Location: Gebenbach
(49.5378°N, 11.8735°E)
Time: 11:56:43
(UTC+00:00)

Cosmos 1503 Rocket - Pass Details

Date: 29 October 2020
Orbit: 752 x 791 km, 74.0° (Epoch: 24 November)

Event Time Altitude Azimuth Distance (km) Brightness Sun altitude
Rises 17:14:49 0° 338° (NNW) 3,230 7.5 -13.4°
Reaches altitude 10° 17:17:13 10° 342° (NNW) 2,305 6.6 -13.8°
Maximum altitude 17:22:25 62° 63° (ENE) 861 4.0 -14.7°
Drops below altitude 10° 17:27:37 10° 144° (SE) 2,314 6.2 -15.5°
Enters shadow 17:29:45 - 148° (SSE) 3,139 6.9 -15.8°
